User: anonymous   Login
Location: Unspecified
(0.0000°N, 0.0000°E)
Time: 03:48:23
(UTC+00:00)
Language:

Triad OI-1X - Orbit

View from above orbital plane
View from above orbital plane
View from above satellite
View from above satellite

Ground track
Ground track

The orbit data is extracted from the following two-line orbital elements,

1 06173U 72069A   24206.60023904  .00001373  00000-0  34031-3 0  9997
2 06173  89.9811 208.3934 0048757 245.7193 253.6742 14.50826217730078
Epoch (UTC): 24 July 2024 14:24:20
Eccentricity: 0.0048757
inclination: 89.9811°
perigee height: 688 km
apogee height: 757 km
right ascension of ascending node: 208.3934°
argument of perigee: 245.7193°
revolutions per day: 14.50826217
mean anomaly at epoch: 253.6742°
orbit number at epoch: 73007

The dashed part of the orbit path shows where the satellite is in the earth's shadow,  

DLR